Tracking 20040 objects as of 19-Nov-2019
Live streaming from Space Station
objects crossing your sky now

ARIANE 5 R/B

Track ARIANE 5 R/B now!


NORAD ID: 41593
Int'l Code: 2016-039C
Perigee: 286.8 km
Apogee: 35,267.0 km
Inclination: 5.9 °
Period: 622.4 minutes
Semi major axis: 24147 km
RCS: Unknown
Launch date: June 18, 2016
Source: France (FR)
Launch site: FRENCH GUIANA (FRGUI)

Note: This is a ROCKET BODY
aabbcc
Your satellite tracking list
Your tracking list is empty




NASA's NSSDC Master Catalog

Two Line Element Set (TLE):
1 41593U 16039C   19321.31478558 +.00000376 +00000-0 +27440-3 0  9994
2 41593 005.9482 259.3444 7242903 127.0885 323.0924 02.31357444028692
Source of the keplerian elements: AFSPC